Starlink 33928

operational
NORAD ID: 64003 Int'l Des: 2025-101 Owner: SPXS Country: US Constellation: starlink
LEOCIRCULAR

Starlink 33928について

説明を読み込み中...

リアルタイム位置

3D地球を読み込み中...

次回通過

高度履歴

Altitude vs Time

uPlot chart will show altitude changes over time

軌道要素

1 64003U 25101K 26062.24292494 .00039434 00000-0 14341-2 0 9992
2 64003 43.0047 33.9946 0002062 249.8198 110.2432 15.27597715 46077
Epoch: Mar 3, 2026 • Age: 34 hours

現在のステータス

高度 490.7 km
速度 7.62 km/s
衛星直下点 -32.14°S, 35.35°E
打ち上げ日 May 14, 2025
運用期間 0.8 years
タイプ internet

技術仕様

分類 Payload
質量 575.00 kg
乾燥質量 530.00 kg
総質量 575.00 kg
長さ 0.30 m
直径 4.10 m
スパン 29.00 m
形状 Box + pan
製造者 SPXS
バスタイプ Starlink V2MO
フェーズステータス In Orbit
所有者/国 SPXS/US

大規模コンステレーション

Loading constellations...